Regional Weather Roundup
Issued by NWS

Home | Current Version | Previous Version | Graphics & Text | Print | Product List | Glossary On
Versions: 1 2 3 4 5 6 7 8 9 10 11 12 13 14 15 16 17 18 19 20 21 22 23 24 25 26 27 28 29 30 31 32 33 34 35 36 37 38 39 40 41 42 43 44 45 46 47 48 49 50
000
ASUS44 KMEG 260600
RWRTN
TENNESSEE HOURLY STATE WEATHER ROUNDUP
NATIONAL WEATHER SERVICE MEMPHIS TN
100 AM CDT THU MAY 26 2016

TNZ002-004-019-021-049-052-054-088>092-260700-
WEST TENNESSEE

CITY           SKY/WX    TMP DP  RH WIND       PRES   REMARKS
MEMPHIS INTL   CLEAR     72  63  73 S8        30.03F
NWS MEMPHIS      N/A     68 N/A N/A MISG        N/A
JACKSON        CLEAR     66  61  84 S6        30.06F
DYERSBURG      CLEAR     66  61  82 S6        30.04S
UNION CITY     CLEAR     64  63  94 S5        30.04S
PARIS          MOCLDY    63  61  94 S6        30.06F
LEXINGTON      MOCLDY    63  63 100 CALM      30.07F
$$

TNZ008-025-027-028-033-062-065-066-260700-
NORTH MIDDLE TENNESSEE

CITY           SKY/WX    TMP DP  RH WIND       PRES   REMARKS
NASHVILLE      PTCLDY    66  63  90 CALM      30.10S FOG
CLARKSVILLE    PTCLDY    63  62  97 CALM      30.08S
COOKEVILLE     MOCLDY    64  64 100 CALM      30.12R
CROSSVILLE     CLEAR     67  57  70 CALM      30.15F
$$

TNZ061-075-076-078-094-096-097-260700-
SOUTH MIDDLE TENNESSEE

CITY           SKY/WX    TMP DP  RH WIND       PRES   REMARKS
TULLAHOMA      CLOUDY    70  59  68 S5        30.13S
WINCHESTER     PTCLDY    66  61  82 SE6       30.12F
MCMINNVILLE    MOCLDY    66  66 100 NW9       30.14R
COLUMBIA       MOCLDY    70  70 100 S6        30.08F
SHELBYVILLE    PTCLDY    68  63  83 CALM      30.12R
$$

TNZ017-018-042-046-047-260700-
NORTHEAST TENNESSEE

CITY           SKY/WX    TMP DP  RH WIND       PRES   REMARKS
TRI CITIES     CLOUDY    68  63  84 CALM      30.16F
$$

TNZ012-013-036-069-073-074-260700-
CENTRAL EAST TENNESSEE

CITY           SKY/WX    TMP DP  RH WIND       PRES   REMARKS
KNOXVILLE      PTCLDY    68  60  75 CALM      30.10F
OAK RIDGE      CLEAR     66  61  84 CALM      30.13R
GATLINBURG     CLEAR     63  59  88 CALM      30.12F
$$

TNZ083-085-099-260700-
SOUTHEAST TENNESSEE

CITY           SKY/WX    TMP DP  RH WIND       PRES   REMARKS
CHATTANOOGA    CLOUDY    73  57  57 S5        30.12F
$$

SKY/WX REPORTED AS FAIR MEANS FEW OR NO CLOUDS BELOW
12 THOUSAND FEET.





USA.gov is the U.S. government's official web portal to all federal, state and local government web resources and services.